H-2A DEB

Satellite information

Favourite Embed

Satellite Type and Status

DEBRISIN ORBIT

Key statistics

Satellite H-2A DEB at a glance.

Uptime

2863

Days in orbit

Revolutions

≈ 14.5

Per day

Orbit

SSO

Sun Synchronous Orbit

Inclination

98.3

Latest

Satellite identification and parameters

Extended collection of information and parameters for H-2A DEB.

Object identification

Identified? True

Debris? True

Object name: H-2A DEB

International designator: 2017-082E

Object number (NORAD): 43069

Object ID (CCSDS): 43069

Country: JAPAN (JPN)

Current information (Y/N): Y

RCS size: SMALL

Orbital parameters

Period: 98.973 minutes

Inclination: 98.2743 deg

SMA: 7087.711 km

Apoapsis: 727.469 km

Periapsis: 691.682 km

RAAN: 2.3142 deg

Eccentricy: 0.00252459

Argument of periapsis: 140.3968 deg

Mean anomaly: 219.9079 deg

Mean motion: 14.54935636 rev/day

Mean motion (dot): 0.00006497 rev/day2

B* drag term: 0.0015139263 1/REarth

Two-line elements (TLE)

Creation date: Oct. 25, 2025, 3:11 a.m.

Reference frame: TEME

Reference center: EARTH

Epoch: Oct. 24, 2025, 4:56 p.m. UTC

TLE line 0: 0 H-2A DEB

TLE line 1: 1 43069U 17082E 25297.70598193 .00006497 00000-0 15139-2 0 9994

TLE line 2: 2 43069 98.2743 2.3142 0025246 140.3968 219.9079 14.54935636412469

Live tracking on map

Real-time ground track for satellite H-2A DEB.

In-orbit conjunctions

A list of the most updated potential collisions computed for object H-2A DEB.

Target Orbit TCA Probability of collision Miss distance Type
THOR BURNER 2 R/B SSO 2024-08-19 16:02:44 0.0003880356 82.0 (m) ROCKET BODY
TITAN 3C TRANSTAGE DEB LEO 2024-07-30 13:00:04 0.0001957731 142.0 (m) DEBRIS

Associated space launch

GCOM-C1 is another satellite in JAXA's Earth observation Global Change Observation Mission (GCOM) constellation. This spacecraft is the first satellite in GCOM-C series and is intended to operate in sun-synchronous orbit for 5 years. It aims to collect surface and atmospheric measurements in order to monitor global climate change. Along with it is launched an engineering test satellite SLATS (Super Low Altitude Test Satellite), which is an attempt to develop techniques to operate a satellite in extremely low orbits. SLATS will try achieve that by maintaining position in orbit via ion engines. It will also collect data on atmosphere density and measure atomic oxygen in such low altitudes.

H-2A DEB was lifted into orbit during the mission ‘H-IIA 202 | GCOM-C1 & SLATS’, on board a H-IIA space rocket.

The launch took place on Dec. 23, 2017, 1:26 a.m. from Yoshinobu Launch Complex LP-1.

For more information about the launch, click the button.

Launch to space H-IIA 202 | GCOM-C1 & SLATS
H-IIA 202 | GCOM-C1 & SLATS

Agency: N/A

Status: Launch Successful

Launch date: Dec. 23, 2017, 1:26 a.m. UTC

Rocket: H-IIA

Launch pad: Yoshinobu Launch Complex LP-1

Location: Tanegashima Space Center, Japan

...

Latest news about this satellite

There are no fresh news available about this satellite. Check back as we update our databases every day.


Newsletter sign-up

Weekly statistics, charts and insights to help you stay on top of the space industry.